Regional Weather Roundup
Issued by NWS

Home | Current Version | Previous Version | Text Only | Print | Product List | Glossary Off
Versions: 1 2 3 4 5 6 7 8 9 10 11 12 13 14 15 16 17 18 19 20 21 22 23 24 25 26 27 28

000
ASUS45 KPSR 171810
RWRAZ

ARIZONA HOURLY REGIONAL WEATHER ROUNDUP
NATIONAL WEATHER SERVICE PHOENIX AZ
1100 AM MST FRI NOV 17 2017

NOTE: FAIR INDICATES FEW OR NO CLOUDS BELOW 12,000 FEET WITH NO
SIGNIFICANT WEATHER AND/OR OBSTRUCTIONS TO VISIBILITY.

AZZ001>003-036-171900-
NORTHWEST ARIZONA

CITY           SKY/WX    TMP DP  RH WIND       PRES   REMARKS
BULLHEAD CITY  CLOUDY    72  37  28 CALM      29.96R
KINGMAN        CLOUDY    66  39  37 SW22      30.04R
6HR MIN TEMP:  60; 6HR MAX TEMP:  66; 6HR PCP: TRACE;

$$

AZZ004>008-015-016-018-171900-
NORTH CENTRAL ARIZONA

CITY           SKY/WX    TMP DP  RH WIND       PRES   REMARKS
GRAND CANYON   CLOUDY    49  40  71 SW13      30.09F
6HR MIN TEMP:  47; 6HR MAX TEMP:  49; 6HR PCP: TRACE;

WILLIAMS       LGT RAIN  46  39  76 SW13G18   30.16R
PRESCOTT       CLOUDY    59  37  44 SW10      30.11F
6HR MIN TEMP:  55; 6HR MAX TEMP:  60; 6HR PCP: TRACE;

FLAGSTAFF      CLOUDY    47  31  53 SW17G23   30.16R
6HR MIN TEMP:  47; 6HR MAX TEMP:  49; 6HR PCP: TRACE;

PAYSON           N/A     59  30  33 VRB6      30.17R
PAGE           MOSUNNY   67  37  33 SW13G23   29.91S
6HR MIN TEMP:  63; 6HR MAX TEMP:  67;

$$

AZZ009>014-017-171900-
NORTHEAST ARIZONA

CITY           SKY/WX    TMP DP  RH WIND       PRES   REMARKS
WINSLOW        PTSUNNY   61  39  44 SW23G33   30.08F
6HR MIN TEMP:  44; 6HR MAX TEMP:  65;

SAINT JOHNS    PTSUNNY   67  31  26 W26G37    30.08F
6HR MIN TEMP:  49; 6HR MAX TEMP:  67;

WINDOW ROCK    CLOUDY    56  31  38 SW21G36   30.10F
6HR MIN TEMP:  46; 6HR MAX TEMP:  56; 6HR PCP: TRACE;

SHOW LOW       MOSUNNY   61  30  31 SW22G29   30.17R
$$

AZZ540-542>544-546-548-171900-
GREATER PHOENIX AREA

CITY           SKY/WX    TMP DP  RH WIND       PRES   REMARKS
PHOENIX        PTSUNNY   74  31  20 N5        30.00R
6HR MIN TEMP:  63; 6HR MAX TEMP:  74;

BUCKEYE        CLOUDY    72 N/A N/A CALM      30.02S
GLENDALE       PTSUNNY   70  32  24 CALM      30.03R
LUKE AFB       LGT RAIN  69  35  29 CALM      30.01R
6HR MIN TEMP:  59; 6HR MAX TEMP:  70; 6HR PCP: TRACE;

DEER VALLEY    LGT RAIN  70  35  27 NE3       30.01R
6HR MIN TEMP:  63; 6HR MAX TEMP:  71; 6HR PCP: TRACE;

SCOTTSDALE     PTSUNNY   72  32  23 SE5       30.03R
6HR MIN TEMP:  61; 6HR MAX TEMP:  72;

MESA-FALCON    PTSUNNY   75  30  19 S3        30.03R
MESA-GATEWAY   PTSUNNY   73  30  20 SE6       30.03R
CHANDLER       PTSUNNY   72  34  25 CALM      30.01R
$$

AZZ539-553-171900-
SOUTHWEST MARICOPA COUNTY AND PINAL COUNTY

CITY           SKY/WX    TMP DP  RH WIND       PRES   REMARKS
CASA GRANDE    NOT AVBL
GILA BEND      PTSUNNY   81  41  24 N5        30.00R
$$

AZZ503-504-507>509-171900-
SOUTHEAST ARIZONA

CITY           SKY/WX    TMP DP  RH WIND       PRES   REMARKS
TUCSON         SUNNY     77  24  14 E3        30.08F
6HR MIN TEMP:  50; 6HR MAX TEMP:  77;

DAVIS-MONTHAN  SUNNY     78  25  14 CALM      30.06F
6HR MIN TEMP:  53; 6HR MAX TEMP:  78;

RYAN FIELD     SUNNY     75  28  17 NE3       30.07F
NOGALES        SUNNY     75  24  15 VRB3      30.14F
6HR MIN TEMP:  45; 6HR MAX TEMP:  76;

SIERRA VISTA   SUNNY     76  17  11 SW10G20   30.17F
6HR MIN TEMP:  50; 6HR MAX TEMP:  76;

DOUGLAS        SUNNY     73  23  15 VRB3      30.14F
6HR MIN TEMP:  41; 6HR MAX TEMP:  73;

SAFFORD        SUNNY     71  21  15 VRB3      30.06F
6HR MIN TEMP:  43; 6HR MAX TEMP:  72;

$$

AZZ532-171900-
SOUTHWEST ARIZONA

CITY           SKY/WX    TMP DP  RH WIND       PRES   REMARKS
YUMA           CLOUDY    76  45  33 SW6       29.99S
6HR MIN TEMP:  63; 6HR MAX TEMP:  76;

$$

CAZ041-043-047-048-061-525>527-560>570-171900-
SOUTHERN CALIFORNIA

CITY           SKY/WX    TMP DP  RH WIND       PRES   REMARKS
DOWNTOWN L.A.  MOSUNNY   68  59  73 CALM      30.08R
6HR MIN TEMP:  63; 6HR MAX TEMP:  69; 6HR PCP: TRACE;

L.A. AIRPORT   PTSUNNY   68  62  81 W12       30.09R
6HR MIN TEMP:  64; 6HR MAX TEMP:  68; 6HR PCP: TRACE;

SAN DIEGO      CLOUDY    68  55  63 N5        30.09S
6HR MIN TEMP:  63; 6HR MAX TEMP:  68; 6HR PCP: TRACE;

BURBANK        SUNNY     67  57  70 CALM      30.08S
6HR MIN TEMP:  62; 6HR MAX TEMP:  67; 6HR PCP: TRACE;

ONTARIO        PTSUNNY   66  50  56 CALM      30.09S
6HR MIN TEMP:  63; 6HR MAX TEMP:  66; 6HR PCP: TRACE;

RIVERSIDE      PTSUNNY   66  56  70 E3        30.10R
6HR MIN TEMP:  60; 6HR MAX TEMP:  66; 6HR PCP:  0.01;

PALM SPRINGS   CLOUDY    75  48  38 CALM      29.98F
6HR MIN TEMP:  65; 6HR MAX TEMP:  75; 6HR PCP: TRACE;

EL CENTRO NAS  CLOUDY    80  41  24 W8        30.00R
6HR MIN TEMP:  70; 6HR MAX TEMP:  80;

IMPERIAL       CLOUDY    79  48  33 W5        29.97S
6HR MIN TEMP:  69; 6HR MAX TEMP:  79;

BLYTHE         CLOUDY    75  46  35 SW8       29.96R
6HR MIN TEMP:  67; 6HR MAX TEMP:  75; 6HR PCP: TRACE;

NEEDLES        CLOUDY    74  39  28 CALM      29.98R
6HR MIN TEMP:  69; 6HR MAX TEMP:  76; 6HR PCP: TRACE;

$$

NVZ020-UTZ003-171900-
SOUTHERN NEVADA-UTAH

CITY           SKY/WX    TMP DP  RH WIND       PRES   REMARKS
LAS VEGAS      CLOUDY    71  42  35 SW17G26   29.88F
6HR MIN TEMP:  67; 6HR MAX TEMP:  71;

SALT LAKE CITY LGT SNOW  39  37  92 E10       29.84S FOG     WCI  32
6HR MIN TEMP:  39; 6HR MAX TEMP:  46; 6HR PCP:  0.62;

$$

NMZ009-TXZ055-171900-
NEW MEXICO-WEST TEXAS

CITY           SKY/WX    TMP DP  RH WIND       PRES   REMARKS
ALBUQUERQUE    CLOUDY    64  17  16 S12       30.05F
6HR MIN TEMP:  46; 6HR MAX TEMP:  64;

EL PASO        PTSUNNY   76  27  16 W18       30.08F
6HR MIN TEMP:  48; 6HR MAX TEMP:  77;

$$


........................KEY........................
SKY/WX - SKY CONDITION/WEATHER
TMP    - TEMPERATURE IN FAHRENHEIT
DP     - DEW POINT IN FAHRENHEIT
RH     - RELATIVE HUMIDITY IN PERCENT
WIND   - DIRECTION AND SPEED IN MILES PER HOUR (MPH)
VRB    - VARIABLE WIND DIRECTION
PRES   - MEAN SEA LEVEL PRESSURE IN INCHES OF MERCURY
         F - FALLING PRESSURE   R - RISING PRESSURE
         S - STEADY PRESSURE
VSB    - VISIBILITY IN MILES
HX     - HEAT INDEX IN FAHRENHEIT
WCI    - WIND CHILL INDEX IN FAHRENHEIT
TC     - TEMPERATURE IN CELSIUS WHICH IS ALSO KNOWN AS
         TEMPERATURE IN CENTIGRADE
AFB    - AIR FORCE BASE
         LUKE AFB IS LUKE AIR FORCE BASE
         DAVIS-MONTHAN IS DAVIS-MONTHAN AIR FORCE BASE
NAS    - NAVAL AIR STATION
         EL CENTRO NAS IS EL CENTRO NAVAL AIR STATION
N/A    - NOT AVAILABLE





USA.gov is the U.S. government's official web portal to all federal, state and local government web resources and services.